This is the latest recevied weather packets stored in our database for station/object N4LLZ-13. If no packets are shown the sender has not sent any weather packets the latest 10 day(s).
| Time | Temp. | Humidity | Pressure | Rain* | Wind** | Luminosity | Snow |
|---|---|---|---|---|---|---|---|
| 1787415811 | 26.11° C | 78% | 1015.9 hPa | 0 mm | - | - | - |
| 1787415510 | 26.11° C | 77% | 1016 hPa | 0 mm | - | - | - |
| 1787415209 | 26.67° C | 76% | 1016 hPa | 0 mm | - | - | - |
| 1787414908 | 26.67° C | 76% | 1016.1 hPa | 0 mm | - | - | - |
| 1787414608 | 26.67° C | 77% | 1016.1 hPa | 0 mm | - | - | - |
| 1787414307 | 26.11° C | 78% | 1016 hPa | 0 mm | - | - | - |
| 1787414006 | 26.11° C | 80% | 1016 hPa | 0 mm | - | - | - |
| 1787413705 | 25.56° C | 80% | 1016 hPa | 0 mm | - | - | - |
| 1787413404 | 25.56° C | 80% | 1016 hPa | 0 mm | - | - | - |
| 1787413103 | 26.11° C | 79% | 1016 hPa | 0 mm | - | - | - |
| 1787412802 | 26.11° C | 78% | 1016 hPa | 0 mm | - | - | - |
| 1787412502 | 26.11° C | 81% | 1016 hPa | 0 mm | - | - | - |
| 1787412201 | 26.11° C | 81% | 1016.1 hPa | 0 mm | - | - | - |
| 1787411900 | 26.11° C | 79% | 1016.2 hPa | 0 mm | - | - | - |
| 1787411599 | 26.11° C | 81% | 1016.3 hPa | 0 mm | - | - | - |
| 1787411298 | 25° C | 81% | 1016.4 hPa | 0 mm | - | - | - |
| 1787410998 | 24.44° C | 84% | 1016.4 hPa | 0 mm | - | - | - |
| 1787410697 | 24.44° C | 85% | 1016.4 hPa | 0 mm | - | - | - |
| 1787410396 | 24.44° C | 86% | 1016.4 hPa | 0 mm | - | - | - |
| 1787410095 | 24.44° C | 87% | 1016.5 hPa | 0 mm | - | - | - |
| 1787409794 | 24.44° C | 85% | 1016.6 hPa | 0 mm | - | - | - |
| 1787409493 | 24.44° C | 85% | 1016.6 hPa | 0 mm | - | - | - |
| 1787409192 | 24.44° C | 87% | 1016.7 hPa | 0 mm | - | - | - |
| 1787408891 | 24.44° C | 88% | 1016.7 hPa | 0 mm | - | - | - |
| 1787408591 | 24.44° C | 87% | 1016.7 hPa | 0 mm | - | - | - |
* Rain latest hour (hover to see other rain measurements)
** Current wind speed in m/s (hover to see current wind gust speed)